Date,TemperatureHighF,TemperatureAvgF,TemperatureLowF,DewpointHighF,DewpointAvgF,DewpointLowF,HumidityHigh,HumidityAvg,HumidityLow,PressureMaxIn,PressureMinIn,WindSpeedMaxMPH,WindSpeedAvgMPH,GustSpeedMaxMPH,PrecipitationSumIn
2013-3-1,25.0,24.3,23.0,20.0,18.6,15.0,84,79,73,30.19,30.05,11,7,21,0.01
2013-3-2,31.0,20.9,7.0,16.0,12.2,3.0,86,70,51,30.18,30.12,11,4,16,0.00
2013-3-3,38.0,17.6,2.0,19.0,4.7,-1.0,89,62,21,30.13,30.05,7,2,13,0.00
2013-3-4,41.0,22.5,4.0,23.0,15.0,0.0,86,74,46,30.10,30.02,6,2,11,0.00
2013-3-5,32.0,29.5,26.0,28.0,25.7,23.0,96,85,74,30.02,29.85,11,4,20,0.00
2013-3-6,35.0,30.0,26.0,27.0,24.6,22.0,87,80,70,30.27,29.99,13,7,22,0.04
2013-3-7,49.0,30.7,16.0,25.0,19.9,14.0,92,67,34,30.40,30.26,6,2,12,0.01
2013-3-8,49.0,26.1,9.0,31.0,20.5,7.0,92,81,49,30.44,30.27,9,2,15,0.00
2013-3-9,38.0,33.1,23.0,33.0,28.6,21.0,91,83,76,30.27,29.81,11,3,17,0.05
2013-3-10,47.0,38.1,34.0,42.0,34.7,31.0,99,88,77,29.81,29.60,3,1,9,0.66
2013-3-11,39.0,34.8,31.0,34.0,28.5,23.0,87,78,65,29.71,29.50,9,3,15,0.15
2013-3-12,35.0,29.5,25.0,28.0,23.3,19.0,92,78,53,29.95,29.71,13,3,25,0.01
2013-3-13,34.0,25.6,18.0,21.0,11.5,6.0,85,57,33,30.26,29.95,13,7,23,0.01
2013-3-14,24.0,19.8,17.0,11.0,10.1,9.0,74,66,51,30.26,30.25,3,1,4,0.00
2013-3-15,31.0,31.0,31.0,27.0,25.8,25.0,86,82,79,29.81,29.78,0,0,0,0.05
2013-3-16,38.0,29.3,26.0,28.0,22.7,16.0,93,77,48,30.09,29.77,8,2,14,0.01
2013-3-17,37.0,27.3,19.0,22.0,16.5,10.0,79,64,45,30.22,29.99,8,4,15,0.01
2013-3-18,38.0,29.7,18.0,33.0,25.1,10.0,91,83,69,30.00,29.56,14,4,29,0.12
2013-3-19,32.0,20.8,13.0,12.0,9.4,6.0,76,62,41,29.99,29.68,18,10,35,0.04
2013-3-20,21.0,15.8,10.0,8.0,2.9,-1.0,62,56,48,30.02,29.98,15,8,25,0.04
2013-3-21,14.0,12.3,11.0,2.0,2.0,1.0,65,62,59,30.00,29.98,9,7,17,0.00
2013-3-23,48.0,36.1,29.0,25.0,23.0,18.0,78,61,30,30.09,30.02,4,1,12,0.00
2013-3-24,40.0,32.4,29.0,29.0,25.2,21.0,84,75,58,30.03,29.72,10,4,21,0.00
2013-3-25,35.0,31.5,28.0,28.0,24.3,21.0,85,75,62,30.05,29.74,14,7,25,0.00
2013-3-26,42.0,34.5,30.0,28.0,24.9,23.0,78,68,56,30.20,30.05,10,5,19,0.00
2013-3-27,35.0,34.5,34.0,25.0,24.0,23.0,66,65,65,30.21,30.20,6,4,11,0.00
2013-3-29,0.0,0.0,0.0,-78.0,-78.0,-78.0,1,1,1,0.00,40.00,0,0,0,0.00
2013-3-30,0.0,0.0,0.0,-78.0,-78.2,-99.9,1,1,1,0.00,40.00,0,0,0,0.00
2013-3-31,0.0,0.0,0.0,-78.0,-78.0,-78.0,1,1,1,0.00,40.00,0,0,0,0.00